Time,TemperatureF,DewpointF,PressureIn,WindDirection,WindDirectionDegrees,WindSpeedMPH,WindSpeedGustMPH,Humidity,HourlyPrecipIn,Conditions,Clouds,dailyrainin,SoftwareType,DateUTC
2013-01-10 01:16:00,72.1,66.7,30.27,East,101,2.7,0.0,83,0.00,OVC,,0.00,WeatherDisplay:10.37,2013-01-10 06:16:00,
2013-01-10 01:31:00,72.1,66.7,30.27,ESE,105,3.4,3.4,83,0.00,OVC,,0.00,WeatherDisplay:10.37,2013-01-10 06:31:00,
2013-01-10 01:36:00,72.3,67.2,30.27,East,79,3.4,3.4,84,0.00,OVC,,0.00,WeatherDisplay:10.37,2013-01-10 06:36:00,
2013-01-10 01:46:00,72.3,67.2,30.27,East,93,3.4,0.0,84,0.00,OVC,,0.00,WeatherDisplay:10.37,2013-01-10 06:46:00,
2013-01-10 01:51:00,72.5,67.4,30.27,ESE,122,2.3,0.0,84,0.00,OVC,,0.00,WeatherDisplay:10.37,2013-01-10 06:51:00,
2013-01-10 02:00:00,72.5,67.7,30.27,East,85,4.6,0.0,85,0.00,OVC,,0.00,WeatherDisplay:10.37,2013-01-10 07:00:00,
2013-01-10 02:01:00,72.5,67.7,30.27,East,83,4.9,4.9,85,0.00,BKN,,0.00,WeatherDisplay:10.37,2013-01-10 07:01:00,
2013-01-10 02:05:00,72.5,67.7,30.27,East,91,3.6,3.6,85,0.00,BKN,,0.00,WeatherDisplay:10.37,2013-01-10 07:05:00,
2013-01-10 02:10:00,72.5,67.7,30.27,ENE,67,3.4,3.4,85,0.00,BKN,,0.00,WeatherDisplay:10.37,2013-01-10 07:10:00,
2013-01-10 02:16:00,72.5,67.7,30.27,ESE,106,3.4,3.4,85,0.00,SCT,,0.00,WeatherDisplay:10.37,2013-01-10 07:16:00,
2013-01-10 02:21:00,72.3,67.9,30.27,NE,55,5.8,5.8,86,0.00,SCT,,0.00,WeatherDisplay:10.37,2013-01-10 07:21:00,
2013-01-10 02:31:00,72.3,67.9,30.27,East,85,5.8,5.8,86,0.00,SCT,,0.00,WeatherDisplay:10.37,2013-01-10 07:31:00,
2013-01-10 02:36:00,72.5,68.1,30.27,ESE,111,4.0,4.5,86,0.00,SCT,,0.00,WeatherDisplay:10.37,2013-01-10 07:36:00,
2013-01-10 02:46:00,72.5,68.4,30.27,ENE,76,5.8,5.8,87,0.00,FEW,,0.00,WeatherDisplay:10.37,2013-01-10 07:46:00,
2013-01-10 02:51:00,72.5,68.1,30.27,ESE,116,5.8,5.8,86,0.00,FEW,,0.00,WeatherDisplay:10.37,2013-01-10 07:51:00,
2013-01-10 03:00:00,72.5,68.1,30.27,ESE,114,3.6,4.5,86,0.00,FEW,,0.00,WeatherDisplay:10.37,2013-01-10 08:00:00,
2013-01-10 03:01:00,72.5,68.4,30.27,East,89,5.8,5.8,87,0.00,SCT,,0.00,WeatherDisplay:10.37,2013-01-10 08:01:00,
2013-01-10 03:05:00,72.5,68.4,30.27,East,81,3.6,0.0,87,0.00,SCT,,0.00,WeatherDisplay:10.37,2013-01-10 08:05:00,
2013-01-10 03:10:00,72.5,68.4,30.27,East,86,4.9,4.9,87,0.00,SCT,,0.00,WeatherDisplay:10.37,2013-01-10 08:10:00,
2013-01-10 03:16:00,72.5,68.4,30.27,East,93,5.4,5.4,87,0.00,SCT,,0.00,WeatherDisplay:10.37,2013-01-10 08:16:00,
2013-01-10 03:21:00,72.5,68.4,30.27,ESE,110,5.8,5.8,87,0.00,SCT,,0.00,WeatherDisplay:10.37,2013-01-10 08:21:00,
2013-01-10 03:31:00,72.5,68.4,30.27,East,92,4.0,4.0,87,0.00,SCT,,0.00,WeatherDisplay:10.37,2013-01-10 08:31:00,
2013-01-10 03:36:00,72.5,68.4,30.27,ENE,78,5.8,5.8,87,0.00,SCT,,0.00,WeatherDisplay:10.37,2013-01-10 08:36:00,
2013-01-10 03:46:00,72.5,68.4,30.27,East,87,5.8,5.8,87,0.00,SCT,,0.00,WeatherDisplay:10.37,2013-01-10 08:46:00,
2013-01-10 03:51:00,72.5,68.4,30.27,ESE,110,4.0,4.0,87,0.00,SCT,,0.00,WeatherDisplay:10.37,2013-01-10 08:51:00,
2013-01-10 04:00:00,72.5,68.4,30.25,ESE,107,8.1,8.1,87,0.00,SCT,,0.00,WeatherDisplay:10.37,2013-01-10 09:00:00,
2013-01-10 04:01:00,72.5,68.4,30.25,ESE,115,5.8,5.8,87,0.00,CLR,,0.00,WeatherDisplay:10.37,2013-01-10 09:01:00,
2013-01-10 04:05:00,72.5,68.4,30.25,ESE,123,3.6,3.6,87,0.00,CLR,,0.00,WeatherDisplay:10.37,2013-01-10 09:05:00,
2013-01-10 04:10:00,72.5,68.4,30.25,East,100,3.6,0.0,87,0.00,CLR,,0.00,WeatherDisplay:10.37,2013-01-10 09:10:00,
2013-01-10 04:16:00,72.5,68.4,30.25,East,87,3.4,3.4,87,0.00,CLR,,0.00,WeatherDisplay:10.37,2013-01-10 09:16:00,
2013-01-10 04:21:00,72.5,68.4,30.25,East,98,5.4,5.4,87,0.00,CLR,,0.00,WeatherDisplay:10.37,2013-01-10 09:21:00,
2013-01-10 04:31:00,72.5,68.4,30.25,ESE,108,3.4,0.0,87,0.00,CLR,,0.00,WeatherDisplay:10.37,2013-01-10 09:31:00,
2013-01-10 04:36:00,72.5,68.4,30.25,ESE,121,3.4,0.0,87,0.00,CLR,,0.00,WeatherDisplay:10.37,2013-01-10 09:36:00,
2013-01-10 04:46:00,72.5,68.4,30.25,ESE,114,3.4,3.4,87,0.00,CLR,,0.00,WeatherDisplay:10.37,2013-01-10 09:46:00,
2013-01-10 04:51:00,72.5,68.4,30.25,ESE,116,3.4,3.4,87,0.00,CLR,,0.00,WeatherDisplay:10.37,2013-01-10 09:51:00,
2013-01-10 05:00:00,72.3,68.2,30.25,ESE,103,0.0,0.0,87,0.00,CLR,,0.00,WeatherDisplay:10.37,2013-01-10 10:00:00,
2013-01-10 05:01:00,72.3,68.2,30.25,East,83,0.0,0.0,87,0.00,SCT,,0.00,WeatherDisplay:10.37,2013-01-10 10:01:00,
2013-01-10 05:05:00,72.3,68.2,30.25,East,83,3.4,3.4,87,0.00,SCT,,0.00,WeatherDisplay:10.37,2013-01-10 10:05:00,
2013-01-10 05:10:00,72.3,68.2,30.25,East,83,0.0,0.0,87,0.00,SCT,,0.00,WeatherDisplay:10.37,2013-01-10 10:10:00,
2013-01-10 05:16:00,72.1,68.1,30.25,East,83,0.0,0.0,87,0.00,BKN,,0.00,WeatherDisplay:10.37,2013-01-10 10:16:00,
2013-01-10 05:21:00,72.1,68.1,30.25,East,100,3.4,0.0,87,0.00,BKN,,0.00,WeatherDisplay:10.37,2013-01-10 10:21:00,
2013-01-10 05:31:00,72.0,67.9,30.25,East,91,0.0,0.0,87,0.00,BKN,,0.00,WeatherDisplay:10.37,2013-01-10 10:31:00,
2013-01-10 05:36:00,72.0,67.9,30.25,East,92,0.0,0.0,87,0.00,BKN,,0.00,WeatherDisplay:10.37,2013-01-10 10:36:00,
2013-01-10 05:46:00,71.8,67.7,30.25,East,92,0.0,0.0,87,0.00,OVC,,0.00,WeatherDisplay:10.37,2013-01-10 10:46:00,
2013-01-10 05:51:00,71.6,67.5,30.25,East,91,0.0,0.0,87,0.00,OVC,,0.00,WeatherDisplay:10.37,2013-01-10 10:51:00,
2013-01-10 06:00:00,71.6,67.5,30.25,East,91,0.0,0.0,87,0.00,OVC,,0.00,WeatherDisplay:10.37,2013-01-10 11:00:00,
2013-01-10 06:01:00,71.6,67.5,30.25,East,92,0.0,0.0,87,0.00,SCT,,0.00,WeatherDisplay:10.37,2013-01-10 11:01:00,
2013-01-10 06:05:00,71.6,67.5,30.25,East,91,0.0,0.0,87,0.00,SCT,,0.00,WeatherDisplay:10.37,2013-01-10 11:05:00,
2013-01-10 06:10:00,71.6,67.5,30.25,East,92,0.0,0.0,87,0.00,SCT,,0.00,WeatherDisplay:10.37,2013-01-10 11:10:00,
2013-01-10 06:16:00,71.4,67.3,30.25,East,91,0.0,0.0,87,0.00,SCT,,0.00,WeatherDisplay:10.37,2013-01-10 11:16:00,
2013-01-10 06:21:00,71.2,67.2,30.25,East,91,0.0,0.0,87,0.00,SCT,,0.00,WeatherDisplay:10.37,2013-01-10 11:21:00,
2013-01-10 06:31:00,70.9,66.8,30.25,East,91,0.0,0.0,87,0.00,SCT,,0.00,WeatherDisplay:10.37,2013-01-10 11:31:00,
2013-01-10 06:36:00,70.9,66.8,30.25,East,92,0.0,0.0,87,0.00,SCT,,0.00,WeatherDisplay:10.37,2013-01-10 11:36:00,
2013-01-10 06:46:00,70.9,66.8,30.25,South,187,0.0,0.0,87,0.00,SCT,,0.00,WeatherDisplay:10.37,2013-01-10 11:46:00,
2013-01-10 06:51:00,71.1,67.0,30.25,South,187,0.0,0.0,87,0.00,SCT,,0.00,WeatherDisplay:10.37,2013-01-10 11:51:00,
2013-01-10 07:00:00,71.2,67.2,30.27,South,187,0.0,0.0,87,0.00,SCT,,0.00,WeatherDisplay:10.37,2013-01-10 12:00:00,
2013-01-10 07:01:00,71.6,67.5,30.27,SSE,153,0.0,0.0,87,0.00,SCT,,0.00,WeatherDisplay:10.37,2013-01-10 12:01:00,
2013-01-10 07:05:00,71.4,67.7,30.27,ESE,117,2.7,0.0,88,0.00,SCT,,0.00,WeatherDisplay:10.37,2013-01-10 12:05:00,
2013-01-10 07:10:00,71.6,67.5,30.27,SSE,153,0.0,0.0,87,0.00,SCT,,0.00,WeatherDisplay:10.37,2013-01-10 12:10:00,
2013-01-10 07:16:00,71.6,67.5,30.27,SSE,150,0.0,0.0,87,0.00,SCT,,0.00,WeatherDisplay:10.37,2013-01-10 12:16:00,
2013-01-10 07:21:00,71.6,67.5,30.27,East,94,3.4,0.0,87,0.00,SCT,,0.00,WeatherDisplay:10.37,2013-01-10 12:21:00,
2013-01-10 07:31:00,71.8,67.7,30.27,ENE,62,0.0,0.0,87,0.00,SCT,,0.00,WeatherDisplay:10.37,2013-01-10 12:31:00,
2013-01-10 07:36:00,71.8,68.0,30.27,SE,130,2.7,0.0,88,0.00,SCT,,0.00,WeatherDisplay:10.37,2013-01-10 12:36:00,
2013-01-10 07:46:00,72.0,68.2,30.27,East,94,3.4,0.0,88,0.00,SCT,,0.00,WeatherDisplay:10.37,2013-01-10 12:46:00,
2013-01-10 07:51:00,72.1,68.4,30.27,East,87,0.0,0.0,88,0.00,SCT,,0.00,WeatherDisplay:10.37,2013-01-10 12:51:00,
2013-01-10 08:00:00,72.1,68.4,30.27,East,99,3.4,0.0,88,0.00,SCT,,0.00,WeatherDisplay:10.37,2013-01-10 13:00:00,
2013-01-10 08:01:00,72.3,68.6,30.27,ESE,105,2.3,0.0,88,0.00,FEW,,0.00,WeatherDisplay:10.37,2013-01-10 13:01:00,
2013-01-10 08:05:00,72.3,68.6,30.27,East,99,0.0,0.0,88,0.00,FEW,,0.00,WeatherDisplay:10.37,2013-01-10 13:05:00,
2013-01-10 08:10:00,72.3,68.6,30.27,ESE,105,3.4,0.0,88,0.00,FEW,,0.00,WeatherDisplay:10.37,2013-01-10 13:10:00,
2013-01-10 08:16:00,72.5,68.7,30.27,East,97,3.6,3.6,88,0.00,FEW,,0.00,WeatherDisplay:10.37,2013-01-10 13:16:00,
2013-01-10 08:21:00,72.7,68.9,30.27,East,99,2.7,0.0,88,0.00,FEW,,0.00,WeatherDisplay:10.37,2013-01-10 13:21:00,
2013-01-10 08:31:00,73.0,69.3,30.31,East,91,2.3,0.0,88,0.00,FEW,,0.00,WeatherDisplay:10.37,2013-01-10 13:31:00,
2013-01-10 08:36:00,73.2,69.8,30.31,NE,44,5.8,5.8,89,0.00,FEW,,0.00,WeatherDisplay:10.37,2013-01-10 13:36:00,
2013-01-10 08:46:00,73.8,70.0,30.31,SE,126,5.8,5.8,88,0.00,FEW,,0.00,WeatherDisplay:10.37,2013-01-10 13:46:00,
2013-01-10 08:51:00,73.8,70.0,30.31,East,91,3.4,0.0,88,0.00,FEW,,0.00,WeatherDisplay:10.37,2013-01-10 13:51:00,
2013-01-10 09:00:00,74.3,70.5,30.31,East,100,5.8,5.8,88,0.00,FEW,,0.00,WeatherDisplay:10.37,2013-01-10 14:00:00,
2013-01-10 09:01:00,74.7,71.2,30.31,ESE,112,5.8,5.8,89,0.00,FEW,,0.00,WeatherDisplay:10.37,2013-01-10 14:01:00,
2013-01-10 09:05:00,74.5,71.0,30.31,ENE,70,5.8,5.8,89,0.00,FEW,,0.00,WeatherDisplay:10.37,2013-01-10 14:05:00,
2013-01-10 09:10:00,74.7,71.2,30.31,NW,311,6.3,6.3,89,0.00,FEW,,0.00,WeatherDisplay:10.37,2013-01-10 14:10:00,
2013-01-10 09:16:00,74.8,71.4,30.31,ESE,103,5.8,5.8,89,0.00,FEW,,0.00,WeatherDisplay:10.37,2013-01-10 14:16:00,
2013-01-10 09:21:00,75.2,71.4,30.31,ENE,71,8.1,8.1,88,0.00,FEW,,0.00,WeatherDisplay:10.37,2013-01-10 14:21:00,
2013-01-10 09:31:00,75.6,71.8,30.31,SE,125,5.8,6.3,88,0.00,FEW,,0.00,WeatherDisplay:10.37,2013-01-10 14:31:00,
2013-01-10 09:36:00,76.1,72.3,30.31,SSE,165,3.4,4.0,88,0.00,FEW,,0.00,WeatherDisplay:10.37,2013-01-10 14:36:00,
2013-01-10 09:46:00,76.8,73.0,30.31,ENE,78,5.8,5.8,88,0.00,FEW,,0.00,WeatherDisplay:10.37,2013-01-10 14:46:00,
2013-01-10 09:51:00,77.2,73.0,30.31,ESE,123,4.9,4.9,87,0.00,FEW,,0.00,WeatherDisplay:10.37,2013-01-10 14:51:00,
2013-01-10 10:00:00,77.5,72.7,30.31,East,85,8.1,8.1,85,0.00,FEW,,0.00,WeatherDisplay:10.37,2013-01-10 15:00:00,
2013-01-10 10:01:00,78.3,71.9,30.27,East,82,13.2,13.2,81,0.00,CLR,,0.00,WeatherDisplay:10.37,2013-01-10 15:01:00,
2013-01-10 10:05:00,77.9,72.3,30.31,ESE,118,5.8,5.8,83,0.00,CLR,,0.00,WeatherDisplay:10.37,2013-01-10 15:05:00,
2013-01-10 10:10:00,78.3,71.9,30.27,ESE,102,6.3,6.3,81,0.00,CLR,,0.00,WeatherDisplay:10.37,2013-01-10 15:10:00,
2013-01-10 10:16:00,78.4,71.4,30.27,East,82,9.2,9.2,79,0.00,CLR,,0.00,WeatherDisplay:10.37,2013-01-10 15:16:00,
2013-01-10 10:21:00,78.6,70.4,30.27,East,99,9.2,9.2,76,0.00,CLR,,0.00,WeatherDisplay:10.37,2013-01-10 15:21:00,
2013-01-10 10:31:00,79.3,69.1,30.27,East,89,7.2,7.2,71,0.00,CLR,,0.00,WeatherDisplay:10.37,2013-01-10 15:31:00,
2013-01-10 10:36:00,79.7,69.5,30.27,SE,136,8.1,8.1,71,0.00,CLR,,0.00,WeatherDisplay:10.37,2013-01-10 15:36:00,
2013-01-10 10:46:00,80.4,68.5,30.27,ESE,110,8.1,8.1,67,0.00,CLR,,0.00,WeatherDisplay:10.37,2013-01-10 15:46:00,
2013-01-10 10:51:00,80.6,66.8,30.27,East,101,10.5,10.5,63,0.00,CLR,,0.00,WeatherDisplay:10.37,2013-01-10 15:51:00,
2013-01-10 11:00:00,81.5,66.8,30.27,SW,235,9.2,9.2,61,0.00,CLR,,0.00,WeatherDisplay:10.37,2013-01-10 16:00:00,
2013-01-10 11:01:00,82.0,64.3,30.25,SE,126,10.3,10.3,55,0.00,CLR,,0.00,WeatherDisplay:10.37,2013-01-10 16:01:00,
2013-01-10 11:05:00,81.7,65.5,30.27,SE,141,8.1,8.1,58,0.00,CLR,,0.00,WeatherDisplay:10.37,2013-01-10 16:05:00,
2013-01-10 11:10:00,81.9,64.1,30.25,SE,130,10.1,10.1,55,0.00,CLR,,0.00,WeatherDisplay:10.37,2013-01-10 16:10:00,
2013-01-10 11:16:00,82.4,63.0,30.25,ESE,108,10.3,10.3,52,0.00,CLR,,0.00,WeatherDisplay:10.37,2013-01-10 16:16:00,
2013-01-10 11:21:00,82.8,63.9,30.25,East,91,11.5,11.5,53,0.00,CLR,,0.00,WeatherDisplay:10.37,2013-01-10 16:21:00,
2013-01-10 11:31:00,83.5,61.7,30.25,East,80,10.3,10.3,48,0.00,CLR,,0.00,WeatherDisplay:10.37,2013-01-10 16:31:00,
2013-01-10 11:36:00,83.7,61.3,30.25,East,98,9.2,9.2,47,0.00,CLR,,0.00,WeatherDisplay:10.37,2013-01-10 16:36:00,
2013-01-10 11:46:00,84.0,60.4,30.25,SE,143,8.1,8.1,45,0.00,CLR,,0.00,WeatherDisplay:10.37,2013-01-10 16:46:00,
2013-01-10 11:51:00,84.2,58.6,30.25,ESE,108,10.3,10.3,42,0.00,CLR,,0.00,WeatherDisplay:10.37,2013-01-10 16:51:00,
2013-01-10 12:00:00,84.4,58.8,30.25,SSE,147,8.1,8.1,42,0.00,CLR,,0.00,WeatherDisplay:10.37,2013-01-10 17:00:00,
2013-01-10 12:01:00,85.1,58.8,30.25,East,84,5.8,5.8,41,0.00,CLR,,0.00,WeatherDisplay:10.37,2013-01-10 17:01:00,
2013-01-10 12:05:00,84.7,58.4,30.25,SW,216,10.5,10.5,41,0.00,CLR,,0.00,WeatherDisplay:10.37,2013-01-10 17:05:00,
2013-01-10 12:10:00,84.9,58.6,30.25,East,89,8.1,8.1,41,0.00,CLR,,0.00,WeatherDisplay:10.37,2013-01-10 17:10:00,
2013-01-10 12:16:00,85.5,58.4,30.25,East,79,6.3,6.3,40,0.00,CLR,,0.00,WeatherDisplay:10.37,2013-01-10 17:16:00,
2013-01-10 12:21:00,85.6,57.8,30.25,SE,130,9.2,9.2,39,0.00,CLR,,0.00,WeatherDisplay:10.37,2013-01-10 17:21:00,
2013-01-10 12:31:00,85.8,58.0,30.25,ESE,102,8.1,8.1,39,0.00,CLR,,0.00,WeatherDisplay:10.37,2013-01-10 17:31:00,
2013-01-10 12:36:00,86.2,57.6,30.25,East,96,11.5,11.5,38,0.00,CLR,,0.00,WeatherDisplay:10.37,2013-01-10 17:36:00,
2013-01-10 12:46:00,86.0,58.2,30.25,SE,124,8.1,8.1,39,0.00,CLR,,0.00,WeatherDisplay:10.37,2013-01-10 17:46:00,
2013-01-10 12:51:00,86.2,56.9,30.25,ESE,102,10.3,10.3,37,0.00,CLR,,0.00,WeatherDisplay:10.37,2013-01-10 17:51:00,
2013-01-10 13:00:00,86.4,56.3,30.25,East,99,10.3,10.3,36,0.00,CLR,,0.00,WeatherDisplay:10.37,2013-01-10 18:00:00,
2013-01-10 13:01:00,86.9,56.0,30.25,SE,128,8.1,8.1,35,0.00,CLR,,0.00,WeatherDisplay:10.37,2013-01-10 18:01:00,
2013-01-10 13:05:00,86.5,56.4,30.25,SE,132,5.8,5.8,36,0.00,CLR,,0.00,WeatherDisplay:10.37,2013-01-10 18:05:00,
2013-01-10 13:10:00,86.9,56.0,30.25,SSE,153,8.1,8.1,35,0.00,CLR,,0.00,WeatherDisplay:10.37,2013-01-10 18:10:00,
2013-01-10 13:16:00,87.1,55.3,30.25,SE,125,8.1,8.1,34,0.00,CLR,,0.00,WeatherDisplay:10.37,2013-01-10 18:16:00,
2013-01-10 13:21:00,87.1,55.3,30.25,East,95,10.1,10.1,34,0.00,CLR,,0.00,WeatherDisplay:10.37,2013-01-10 18:21:00,
2013-01-10 13:31:00,87.1,55.3,30.25,ESE,121,6.9,6.9,34,0.00,CLR,,0.00,WeatherDisplay:10.37,2013-01-10 18:31:00,
2013-01-10 13:36:00,87.1,54.5,30.25,ENE,78,8.1,8.1,33,0.00,CLR,,0.00,WeatherDisplay:10.37,2013-01-10 18:36:00,
2013-01-10 13:46:00,87.6,55.0,30.25,SSE,147,6.9,6.9,33,0.00,CLR,,0.00,WeatherDisplay:10.37,2013-01-10 18:46:00,
2013-01-10 13:51:00,88.0,53.6,30.25,ESE,106,8.1,8.1,31,0.00,CLR,,0.00,WeatherDisplay:10.37,2013-01-10 18:51:00,
2013-01-10 14:00:00,88.7,54.2,30.25,ENE,74,8.1,8.1,31,0.00,CLR,,0.00,WeatherDisplay:10.37,2013-01-10 19:00:00,
2013-01-10 14:01:00,88.7,52.4,30.25,East,101,12.6,12.6,29,0.00,FEW,,0.00,WeatherDisplay:10.37,2013-01-10 19:01:00,
2013-01-10 14:05:00,88.9,54.3,30.25,NNE,33,10.3,10.3,31,0.00,FEW,,0.00,WeatherDisplay:10.37,2013-01-10 19:05:00,
2013-01-10 14:10:00,88.7,53.3,30.25,ENE,57,5.8,5.8,30,0.00,FEW,,0.00,WeatherDisplay:10.37,2013-01-10 19:10:00,
2013-01-10 14:16:00,88.7,52.4,30.25,East,82,9.2,9.2,29,0.00,FEW,,0.00,WeatherDisplay:10.37,2013-01-10 19:16:00,
2013-01-10 14:21:00,88.7,52.4,30.25,NE,41,4.6,4.6,29,0.00,FEW,,0.00,WeatherDisplay:10.37,2013-01-10 19:21:00,
2013-01-10 14:31:00,88.3,52.0,30.25,NE,38,5.8,5.8,29,0.00,FEW,,0.00,WeatherDisplay:10.37,2013-01-10 19:31:00,
2013-01-10 14:36:00,88.2,52.8,30.25,ESE,107,8.1,8.1,30,0.00,FEW,,0.00,WeatherDisplay:10.37,2013-01-10 19:36:00,
2013-01-10 14:46:00,87.3,52.0,30.25,ESE,104,8.1,8.1,30,0.00,FEW,,0.00,WeatherDisplay:10.37,2013-01-10 19:46:00,
2013-01-10 14:51:00,86.7,51.6,30.25,ENE,58,2.3,0.0,30,0.00,FEW,,0.00,WeatherDisplay:10.37,2013-01-10 19:51:00,
2013-01-10 15:00:00,86.5,52.3,30.22,East,90,8.1,8.1,31,0.00,FEW,,0.00,WeatherDisplay:10.37,2013-01-10 20:00:00,
2013-01-10 15:01:00,87.6,52.4,30.25,East,98,6.9,6.9,30,0.00,SCT,,0.00,WeatherDisplay:10.37,2013-01-10 20:01:00,
2013-01-10 15:05:00,87.4,54.0,30.22,East,90,8.1,8.1,32,0.00,SCT,,0.00,WeatherDisplay:10.37,2013-01-10 20:05:00,
2013-01-10 15:10:00,87.6,52.4,30.25,East,92,7.2,7.2,30,0.00,SCT,,0.00,WeatherDisplay:10.37,2013-01-10 20:10:00,
2013-01-10 15:16:00,87.1,51.9,30.25,East,99,6.3,6.3,30,0.00,SCT,,0.00,WeatherDisplay:10.37,2013-01-10 20:16:00,
2013-01-10 15:21:00,86.9,52.6,30.25,ESE,113,5.8,5.8,31,0.00,SCT,,0.00,WeatherDisplay:10.37,2013-01-10 20:21:00,
2013-01-10 15:31:00,85.8,51.7,30.25,ESE,116,5.8,5.8,31,0.00,SCT,,0.00,WeatherDisplay:10.37,2013-01-10 20:31:00,
2013-01-10 15:36:00,85.6,52.4,30.25,ESE,117,3.6,3.6,32,0.00,SCT,,0.00,WeatherDisplay:10.37,2013-01-10 20:36:00,
2013-01-10 15:46:00,85.3,52.1,30.25,ESE,110,3.4,3.4,32,0.00,SCT,,0.00,WeatherDisplay:10.37,2013-01-10 20:46:00,
2013-01-10 15:51:00,85.6,53.2,30.25,ESE,104,3.4,3.6,33,0.00,SCT,,0.00,WeatherDisplay:10.37,2013-01-10 20:51:00,
2013-01-10 16:00:00,87.6,52.4,30.27,ESE,119,5.8,5.8,30,0.00,SCT,,0.00,WeatherDisplay:10.37,2013-01-10 21:00:00,
2013-01-10 16:01:00,88.9,51.6,30.27,ENE,57,5.8,5.8,28,0.00,FEW,,0.00,WeatherDisplay:10.37,2013-01-10 21:01:00,
2013-01-10 16:05:00,88.3,52.0,30.27,East,92,4.0,4.0,29,0.00,FEW,,0.00,WeatherDisplay:10.37,2013-01-10 21:05:00,
2013-01-10 16:10:00,88.7,51.4,30.27,ESE,102,3.4,0.0,28,0.00,FEW,,0.00,WeatherDisplay:10.37,2013-01-10 21:10:00,
2013-01-10 16:16:00,89.1,52.7,30.27,ENE,70,3.4,3.6,29,0.00,FEW,,0.00,WeatherDisplay:10.37,2013-01-10 21:16:00,
2013-01-10 16:21:00,88.9,51.6,30.27,East,100,10.3,10.3,28,0.00,FEW,,0.00,WeatherDisplay:10.37,2013-01-10 21:21:00,
2013-01-10 16:31:00,87.1,51.0,30.25,ESE,116,3.4,3.4,29,0.00,FEW,,0.00,WeatherDisplay:10.37,2013-01-10 21:31:00,
2013-01-10 16:36:00,86.2,51.1,30.25,East,97,5.8,5.8,30,0.00,FEW,,0.00,WeatherDisplay:10.37,2013-01-10 21:36:00,
2013-01-10 16:46:00,83.8,50.8,30.25,SE,124,3.4,3.4,32,0.00,FEW,,0.00,WeatherDisplay:10.37,2013-01-10 21:46:00,
2013-01-10 16:51:00,82.9,50.9,30.25,ESE,113,3.6,3.6,33,0.00,FEW,,0.00,WeatherDisplay:10.37,2013-01-10 21:51:00,
2013-01-10 17:00:00,82.2,51.8,30.25,ESE,115,3.6,3.6,35,0.00,FEW,,0.00,WeatherDisplay:10.37,2013-01-10 22:00:00,
2013-01-10 17:01:00,81.7,52.9,30.25,SE,124,4.6,4.6,37,0.00,FEW,,0.00,WeatherDisplay:10.37,2013-01-10 22:01:00,
2013-01-10 17:05:00,81.9,52.3,30.25,ESE,120,3.4,3.4,36,0.00,FEW,,0.00,WeatherDisplay:10.37,2013-01-10 22:05:00,
2013-01-10 17:10:00,81.7,52.9,30.25,East,84,4.9,4.9,37,0.00,FEW,,0.00,WeatherDisplay:10.37,2013-01-10 22:10:00,
2013-01-10 17:16:00,81.3,53.3,30.25,ESE,115,5.8,5.8,38,0.00,FEW,,0.00,WeatherDisplay:10.37,2013-01-10 22:16:00,
2013-01-10 17:21:00,81.1,53.8,30.25,ESE,112,2.7,2.7,39,0.00,FEW,,0.00,WeatherDisplay:10.37,2013-01-10 22:21:00,
2013-01-10 17:31:00,80.6,53.4,30.25,ESE,118,2.3,0.0,39,0.00,FEW,,0.00,WeatherDisplay:10.37,2013-01-10 22:31:00,
2013-01-10 17:36:00,80.2,53.7,30.25,ESE,121,3.4,3.4,40,0.00,FEW,,0.00,WeatherDisplay:10.37,2013-01-10 22:36:00,
2013-01-10 17:46:00,79.7,53.9,30.25,ESE,114,0.0,0.0,41,0.00,FEW,,0.00,WeatherDisplay:10.37,2013-01-10 22:46:00,
2013-01-10 17:51:00,79.3,53.6,30.25,ENE,68,5.4,5.4,41,0.00,FEW,,0.00,WeatherDisplay:10.37,2013-01-10 22:51:00,
2013-01-10 18:00:00,78.8,53.8,30.25,East,99,6.3,6.3,42,0.00,FEW,,0.00,WeatherDisplay:10.37,2013-01-10 23:00:00,
2013-01-10 18:01:00,78.3,53.9,30.25,East,89,6.3,6.3,43,0.00,CLR,,0.00,WeatherDisplay:10.37,2013-01-10 23:01:00,
2013-01-10 18:05:00,78.6,53.6,30.25,East,87,5.8,5.8,42,0.00,CLR,,0.00,WeatherDisplay:10.37,2013-01-10 23:05:00,
2013-01-10 18:10:00,78.3,53.9,30.25,ESE,110,5.8,5.8,43,0.00,CLR,,0.00,WeatherDisplay:10.37,2013-01-10 23:10:00,
2013-01-10 18:16:00,77.9,53.6,30.25,ENE,70,5.8,5.8,43,0.00,CLR,,0.00,WeatherDisplay:10.37,2013-01-10 23:16:00,
2013-01-10 18:21:00,77.7,53.4,30.25,ESE,106,3.4,3.4,43,0.00,CLR,,0.00,WeatherDisplay:10.37,2013-01-10 23:21:00,
2013-01-10 18:31:00,77.2,53.6,30.25,East,92,3.6,3.6,44,0.00,CLR,,0.00,WeatherDisplay:10.37,2013-01-10 23:31:00,
2013-01-10 18:36:00,76.8,53.9,30.25,SE,126,3.4,3.4,45,0.00,CLR,,0.00,WeatherDisplay:10.37,2013-01-10 23:36:00,
2013-01-10 18:46:00,76.5,53.5,30.25,East,97,3.4,3.4,45,0.00,CLR,,0.00,WeatherDisplay:10.37,2013-01-10 23:46:00,
2013-01-10 18:51:00,76.3,54.0,30.25,NE,36,3.4,3.4,46,0.00,CLR,,0.00,WeatherDisplay:10.37,2013-01-10 23:51:00,
2013-01-10 19:00:00,76.1,54.4,30.25,ESE,106,5.8,5.8,47,0.00,CLR,,0.00,WeatherDisplay:10.37,2013-01-11 00:00:00,
2013-01-10 19:01:00,76.1,55.0,30.27,ESE,105,3.6,3.6,48,0.00,FEW,,0.00,WeatherDisplay:10.37,2013-01-11 00:01:00,
2013-01-10 19:05:00,76.1,54.4,30.25,ESE,105,4.0,4.0,47,0.00,FEW,,0.00,WeatherDisplay:10.37,2013-01-11 00:05:00,
2013-01-10 19:10:00,76.1,55.0,30.27,ESE,106,4.0,4.0,48,0.00,FEW,,0.00,WeatherDisplay:10.37,2013-01-11 00:10:00,
2013-01-10 19:16:00,76.3,54.6,30.27,ESE,117,4.9,4.9,47,0.00,FEW,,0.00,WeatherDisplay:10.37,2013-01-11 00:16:00,
2013-01-10 19:21:00,76.1,54.4,30.27,SE,135,5.8,5.8,47,0.00,FEW,,0.00,WeatherDisplay:10.37,2013-01-11 00:21:00,
2013-01-10 19:31:00,76.1,55.0,30.25,ESE,121,3.4,3.4,48,0.00,FEW,,0.00,WeatherDisplay:10.37,2013-01-11 00:31:00,
2013-01-10 19:36:00,76.1,55.0,30.25,East,91,5.8,5.8,48,0.00,FEW,,0.00,WeatherDisplay:10.37,2013-01-11 00:36:00,
2013-01-10 19:46:00,75.9,55.4,30.27,ESE,113,4.0,4.0,49,0.00,FEW,,0.00,WeatherDisplay:10.37,2013-01-11 00:46:00,
2013-01-10 19:51:00,75.9,55.4,30.27,SE,140,4.6,4.6,49,0.00,FEW,,0.00,WeatherDisplay:10.37,2013-01-11 00:51:00,
2013-01-10 20:00:00,75.9,55.9,30.27,East,93,4.6,4.6,50,0.00,FEW,,0.00,WeatherDisplay:10.37,2013-01-11 01:00:00,
2013-01-10 20:01:00,75.6,55.6,30.27,East,83,3.4,3.4,50,0.00,SCT,,0.00,WeatherDisplay:10.37,2013-01-11 01:01:00,
2013-01-10 20:05:00,75.7,55.8,30.27,ESE,119,2.3,2.3,50,0.00,SCT,,0.00,WeatherDisplay:10.37,2013-01-11 01:05:00,
2013-01-10 20:10:00,75.6,55.6,30.27,SE,138,3.4,3.4,50,0.00,SCT,,0.00,WeatherDisplay:10.37,2013-01-11 01:10:00,
2013-01-10 20:16:00,75.4,56.0,30.27,East,98,3.6,3.6,51,0.00,SCT,,0.00,WeatherDisplay:10.37,2013-01-11 01:16:00,
2013-01-10 20:21:00,75.2,56.4,30.27,ESE,106,4.6,4.6,52,0.00,SCT,,0.00,WeatherDisplay:10.37,2013-01-11 01:21:00,
2013-01-10 20:31:00,75.0,57.8,30.27,SE,133,5.8,5.8,55,0.00,SCT,,0.00,WeatherDisplay:10.37,2013-01-11 01:31:00,
2013-01-10 20:36:00,74.8,57.6,30.27,ESE,118,3.4,3.4,55,0.00,SCT,,0.00,WeatherDisplay:10.37,2013-01-11 01:36:00,
2013-01-10 20:46:00,74.7,57.9,30.27,ESE,106,5.8,5.8,56,0.00,SCT,,0.00,WeatherDisplay:10.37,2013-01-11 01:46:00,
2013-01-10 20:51:00,74.7,58.4,30.27,ESE,123,3.4,0.0,57,0.00,SCT,,0.00,WeatherDisplay:10.37,2013-01-11 01:51:00,
2013-01-10 21:00:00,74.5,58.2,30.27,ESE,119,5.8,5.8,57,0.00,SCT,,0.00,WeatherDisplay:10.37,2013-01-11 02:00:00,
2013-01-10 21:01:00,74.1,57.9,30.27,ESE,104,5.8,5.8,57,0.00,OVC,,0.00,WeatherDisplay:10.37,2013-01-11 02:01:00,
2013-01-10 21:05:00,74.3,58.1,30.27,SE,144,5.8,0.0,57,0.00,OVC,,0.00,WeatherDisplay:10.37,2013-01-11 02:05:00,
2013-01-10 21:10:00,74.1,57.9,30.27,East,92,5.8,5.8,57,0.00,OVC,,0.00,WeatherDisplay:10.37,2013-01-11 02:10:00,
2013-01-10 21:16:00,74.1,58.9,30.27,East,99,3.4,3.4,59,0.00,OVC,,0.00,WeatherDisplay:10.37,2013-01-11 02:16:00,
2013-01-10 21:21:00,73.9,58.7,30.27,ESE,118,3.4,3.4,59,0.00,OVC,,0.00,WeatherDisplay:10.37,2013-01-11 02:21:00,
2013-01-10 21:31:00,74.1,59.3,30.31,ESE,109,3.6,3.6,60,0.00,OVC,,0.00,WeatherDisplay:10.37,2013-01-11 02:31:00,
2013-01-10 21:36:00,73.9,59.2,30.31,ESE,114,4.9,0.0,60,0.00,OVC,,0.00,WeatherDisplay:10.37,2013-01-11 02:36:00,
2013-01-10 21:46:00,73.8,59.0,30.31,SE,136,5.8,5.8,60,0.00,OVC,,0.00,WeatherDisplay:10.37,2013-01-11 02:46:00,
2013-01-10 21:51:00,73.6,58.8,30.31,ESE,115,5.4,5.4,60,0.00,OVC,,0.00,WeatherDisplay:10.37,2013-01-11 02:51:00,
2013-01-10 22:00:00,73.4,58.7,30.31,ESE,102,8.0,8.0,60,0.00,OVC,,0.00,WeatherDisplay:10.37,2013-01-11 03:00:00,
2013-01-10 22:01:00,73.2,59.0,30.31,ESE,108,5.8,5.8,61,0.00,BKN,,0.00,WeatherDisplay:10.37,2013-01-11 03:01:00,
2013-01-10 22:05:00,73.2,59.0,30.31,East,90,6.3,6.3,61,0.00,BKN,,0.00,WeatherDisplay:10.37,2013-01-11 03:05:00,
2013-01-10 22:10:00,73.2,59.0,30.31,ESE,110,6.3,6.3,61,0.00,BKN,,0.00,WeatherDisplay:10.37,2013-01-11 03:10:00,
2013-01-10 22:16:00,73.0,58.8,30.31,ENE,74,3.6,3.6,61,0.00,BKN,,0.00,WeatherDisplay:10.37,2013-01-11 03:16:00,
2013-01-10 22:21:00,72.9,58.2,30.31,East,80,8.1,8.1,60,0.00,BKN,,0.00,WeatherDisplay:10.37,2013-01-11 03:21:00,
2013-01-10 22:31:00,72.7,58.0,30.31,East,90,8.1,8.1,60,0.00,BKN,,0.00,WeatherDisplay:10.37,2013-01-11 03:31:00,
2013-01-10 22:36:00,72.7,58.0,30.31,East,101,6.3,6.3,60,0.00,BKN,,0.00,WeatherDisplay:10.37,2013-01-11 03:36:00,
2013-01-10 22:46:00,72.5,57.8,30.31,East,87,5.8,5.8,60,0.00,BKN,,0.00,WeatherDisplay:10.37,2013-01-11 03:46:00,
2013-01-10 22:51:00,72.5,57.8,30.31,ESE,111,5.4,5.4,60,0.00,BKN,,0.00,WeatherDisplay:10.37,2013-01-11 03:51:00,
2013-01-10 23:00:00,72.5,57.8,30.31,ENE,78,8.1,8.1,60,0.00,BKN,,0.00,WeatherDisplay:10.37,2013-01-11 04:00:00,
2013-01-10 23:01:00,72.1,57.5,30.31,ESE,118,4.0,4.0,60,0.00,OVC,,0.00,WeatherDisplay:10.37,2013-01-11 04:01:00,
2013-01-10 23:05:00,72.3,57.7,30.31,ESE,114,3.6,3.6,60,0.00,OVC,,0.00,WeatherDisplay:10.37,2013-01-11 04:05:00,
2013-01-10 23:10:00,72.3,57.7,30.31,ESE,120,5.8,5.8,60,0.00,OVC,,0.00,WeatherDisplay:10.37,2013-01-11 04:10:00,
2013-01-10 23:16:00,72.1,57.5,30.31,ESE,111,5.8,5.8,60,0.00,OVC,,0.00,WeatherDisplay:10.37,2013-01-11 04:16:00,
2013-01-10 23:21:00,72.0,57.3,30.31,SE,131,3.4,3.4,60,0.00,OVC,,0.00,WeatherDisplay:10.37,2013-01-11 04:21:00,
2013-01-10 23:31:00,71.6,57.0,30.31,East,92,4.6,4.6,60,0.00,OVC,,0.00,WeatherDisplay:10.37,2013-01-11 04:31:00,
2013-01-10 23:36:00,71.6,57.0,30.31,East,95,3.4,3.4,60,0.00,OVC,,0.00,WeatherDisplay:10.37,2013-01-11 04:36:00,
2013-01-10 23:46:00,71.2,57.1,30.31,East,99,5.8,5.8,61,0.00,OVC,,0.00,WeatherDisplay:10.37,2013-01-11 04:46:00,
2013-01-10 23:51:00,71.2,57.5,30.31,East,97,5.8,5.8,62,0.00,OVC,,0.00,WeatherDisplay:10.37,2013-01-11 04:51:00,